Regional Weather Roundup
Issued by NWS

Home | Current Version | Previous Version | Text Only | Print | Product List | Glossary On
Versions: 1 2 3 4 5 6 7 8 9 10 11 12 13 14 15 16 17 18 19 20 21 22 23 24 25 26 27 28 29 30 31 32 33 34 35 36 37 38 39 40 41 42 43 44 45 46 47 48 49 50
000
ASUS46 KSEW 191910
RWRWA

WASHINGTON REGIONAL WEATHER ROUNDUP
NATIONAL WEATHER SERVICE SEATTLE WA
1100 AM PST FRI JAN 19 2018

NOTE:"FAIR" INDICATES FEW OR NO CLOUDS BELOW 12,000 FEET WITH NO
SIGNIFICANT WEATHER AND/OR OBSTRUCTIONS TO VISIBILITY.

WAZ507-509-555>559-192000-
SEATTLE, TACOMA, EVERETT, AND VICINITY

CITY           SKY/WX    TMP DP  RH WIND       PRES   REMARKS
EVERETT        LGT RAIN  44  36  73 SE16G26   29.88S
BOEING FIELD   CLOUDY    46  40  79 SE12      29.91R
RENTON         LGT RAIN  45  41  86 E3        29.91R
SEATAC AIRPORT CLOUDY    45  37  73 S14       29.90R
JBLM-MCCHORD   CLOUDY    46  45  94 S17       29.92R
PUYALLUP       FAIR      46  37  71 S9        29.91S
BREMERTON      LGT RAIN  42  39  89 S12       29.89R
JBLM-FT LEWIS  LGT RAIN  46  43  90 SE13      29.91R
TACOMA NARROWS CLOUDY    45  37  73 S15G22    29.91R
$$

WAZ001-503-506-510-514-515-192000-
NORTH INTERIOR

CITY           SKY/WX    TMP DP  RH WIND       PRES   REMARKS
BELLINGHAM     CLOUDY    46  36  68 SE18G26   29.83R
FRIDAY HARBOR  CLOUDY    44  39  82 SE17G30   29.82R
EASTSOUND      CLOUDY    46  37  71 SE15G25   29.82S
PORT ANGELES   CLOUDY    42  41  96 CALM      29.79R
EDIZ HOOK      CLOUDY    42  38  86 S5        29.80S
PORT TOWNSEND  PTSUNNY   43  39  87 S13G29    29.83R
NAS WHIDBEY    LGT RAIN  48  38  68 SE26G36   29.87S
ARLINGTON      CLOUDY    46  37  71 SE18G25   29.89R
BURLINGTON     CLOUDY    46  36  66 SE13G25   29.87R
$$

WAZ020-022-039-040-504-511-512-192000-
SOUTHWEST INTERIOR

CITY           SKY/WX    TMP DP  RH WIND       PRES   REMARKS
SHELTON        CLOUDY    44  40  85 SE10      29.88R
OLYMPIA        CLOUDY    44  39  82 S17G24    29.92R
CHEHALIS       PTSUNNY   45  41  87 S13G18    29.94R
KELSO          CLOUDY    45  39  79 S13       29.99R
VANCOUVER      CLOUDY    46  40  79 S8G23     30.01R
SCAPPOOSE, OR  CLOUDY    44  40  85 S9        29.99R
PORTLAND, OR   CLOUDY    47  40  76 S16G25    30.01R
$$

WAZ021-516-517-192000-
WASHINGTON COAST

CITY           SKY/WX    TMP DP  RH WIND       PRES   REMARKS
FORKS          LGT RAIN  43  41  93 S9        29.78R FOG
HOQUIAM        LGT RAIN  45  43  93 SE16      29.87S FOG
ASTORIA, OR    CLOUDY    47  42  83 S9G21     29.91R
$$

WAZ019-023-024-040-567>569-192000-
CASCADE MOUNTAINS AND COLUMBIA GORGE

CITY           SKY/WX    TMP DP  RH WIND       PRES   REMARKS
STAMPEDE PASS  PTSUNNY   34  29  82 CALM      29.82R
TROUTDALE, OR  CLOUDY    47  40  76 SW12G20   30.02R
HOOD RIVER, OR CLOUDY    37  36  93 CALM      30.00R
THE DALLES, OR CLOUDY    35  34  96 CALM      30.01R FOG
$$

WAZ026-027-041>044-520-521-192000-
EAST SLOPES

CITY           SKY/WX    TMP DP  RH WIND       PRES   REMARKS
OMAK           CLOUDY    36  34  92 SE5       29.90R
WENATCHEE      PTSUNNY   34  32  92 NE3       29.91R
ELLENSBURG     MOSUNNY   36  32  85 CALM      29.90R
YAKIMA         SUNNY     40  31  70 NE3       29.93S
SUNNYSIDE ARPT PTCLDY    42  32  67 CALM      29.95R
YAKIMA TC      FAIR      37  30  75 NW3       29.90R
$$

WAZ028-034-035-192000-
COLUMBIA BASIN

CITY           SKY/WX    TMP DP  RH WIND       PRES   REMARKS
EPHRATA        CLOUDY    35  30  82 CALM      29.91R
MOSES LAKE     SUNNY     36  35  96 SW3       29.92R
PASCO          MOSUNNY   47  33  58 SW9       29.97R
RICHLAND ARPT  PTCLDY    48  36  62 S13G22    29.96R
HERMISTON, OR  PTSUNNY   39  33  79 N3        29.98R
$$

WAZ036>038-192000-
NORTHEAST WASHINGTON

CITY           SKY/WX    TMP DP  RH WIND       PRES   REMARKS
SPOKANE GEIGER PTSUNNY   35  32  88 SW8       29.89R
SPOKANE FELTS  PTSUNNY   39  32  76 SW8       29.91R
FAIRCHILD AFB  MOSUNNY   33  33 100 CALM      29.87R
COEURDALENE,ID MOSUNNY   36  31  82 S8        29.89S
DEER PARK      CLOUDY    34  32  92 S5        29.89S
$$

WAZ029>033-192000-
SOUTHEAST WASHINGTON

CITY           SKY/WX    TMP DP  RH WIND       PRES   REMARKS
PULLMAN        CLOUDY    37  31  78 S7        29.93R
LEWISTON, ID   CLOUDY    39  37  92 NE6       29.96R
WALLA WALLA    CLOUDY    45  33  63 S15       29.96R
PENDLETON, OR  CLOUDY    41  33  73 E6        29.96R
$$



USA.gov is the U.S. government's official web portal to all federal, state and local government web resources and services.